This is the latest recevied weather packets stored in our database for station/object DL8TF-13. If no packets are shown the sender has not sent any weather packets the latest 10 day(s).
| Time | Temp. | Humidity | Pressure | Rain* | Wind** | Luminosity | Snow |
|---|---|---|---|---|---|---|---|
| 1777894440 | 23.89° C | 30% | 981 hPa | - | - | - | - |
| 1777893840 | 23.89° C | 29% | 981 hPa | - | - | - | - |
| 1777893239 | 23.89° C | 31% | 981 hPa | - | - | - | - |
| 1777892640 | 24.44° C | 31% | 981 hPa | - | - | - | - |
| 1777892039 | 24.44° C | 31% | 982 hPa | - | - | - | - |
| 1777891439 | 23.33° C | 31% | 982 hPa | - | - | - | - |
| 1777890839 | 23.33° C | 32% | 982 hPa | - | - | - | - |
| 1777890239 | 22.78° C | 34% | 982 hPa | - | - | - | - |
| 1777889639 | 22.22° C | 34% | 982 hPa | - | - | - | - |
| 1777889039 | 21.67° C | 35% | 982 hPa | - | - | - | - |
| 1777888439 | 21.67° C | 34% | 982 hPa | - | - | - | - |
| 1777887839 | 21.67° C | 35% | 982 hPa | - | - | - | - |
| 1777887239 | 21.11° C | 35% | 982 hPa | - | - | - | - |
| 1777886639 | 21.11° C | 35% | 982 hPa | - | - | - | - |
| 1777886039 | 21.11° C | 35% | 982 hPa | - | - | - | - |
| 1777885439 | 20.56° C | 38% | 982 hPa | - | - | - | - |
| 1777884839 | 20° C | 36% | 983 hPa | - | - | - | - |
| 1777884239 | 19.44° C | 41% | 983 hPa | - | - | - | - |
| 1777883638 | 19.44° C | 42% | 983 hPa | - | - | - | - |
| 1777883038 | 19.44° C | 45% | 983 hPa | - | - | - | - |
| 1777882438 | 18.89° C | 45% | 983 hPa | - | - | - | - |
| 1777881838 | 18.89° C | 48% | 983 hPa | - | - | - | - |
| 1777881238 | 17.78° C | 48% | 983 hPa | - | - | - | - |
| 1777880638 | 17.22° C | 49% | 983 hPa | - | - | - | - |
| 1777880038 | 17.22° C | 49% | 983 hPa | - | - | - | - |
* Rain since midnight (hover to see other rain measurements)
** Current wind speed in m/s (hover to see current wind gust speed)